Wind_Speed
17 17 16 16 16 16 16 16 16 16 16 16 16 17 16 17 17 16 16 16 16 17 17 18 19 20 22 23 25 28 30 33 31 25 19 19 20 17 14 17 14 10 10 10 12 10 9 10 12 17 13 8 6 4 8 8 5 5 4 6 6 6 6 6 7 8 6 9 8 4 3 2 2 2 3 3 5 3 4 9 8 9 10 14 18 28 34 32
18 17 17 17 17 17 17 16 16 16 16 16 16 16 16 17 16 16 17 17 16 16 17 18 19 19 21 24 25 26 30 31 26 24 25 22 18 17 18 20 18 15 11 8 10 10 8 7 10 13 8 4 5 5 6 6 6 6 4 6 7 6 7 7 9 11 8 11 9 2 4 3 4 4 3 2 2 5 6 8 10 14 14 17 23 27 28 29
19 18 18 18 18 18 17 17 17 16 16 16 16 16 17 17 16 16 17 18 17 16 17 18 19 20 20 23 23 25 29 28 19 16 19 16 15 19 21 21 19 18 15 12 11 12 12 11 10 9 8 5 5 6 7 6 6 6 5 6 7 7 8 10 12 13 10 13 10 2 2 3 4 5 4 4 4 1 8 9 10 15 15 17 18 20 24 24
19 19 19 19 18 19 18 18 18 17 16 17 17 16 17 17 16 17 17 18 17 16 17 17 18 19 20 22 21 24 24 18 9 6 7 6 5 14 20 23 21 18 17 16 15 14 16 15 11 6 7 7 6 8 9 7 6 5 7 7 6 8 10 13 14 14 14 15 9 2 3 2 2 4 3 3 5 4 3 9 14 19 19 19 17 16 20 20
19 19 19 19 19 19 19 18 18 18 17 17 17 17 17 16 16 17 17 17 17 17 17 17 18 18 20 20 20 22 17 6 1 3 2 3 3 4 13 19 20 20 19 16 14 14 16 14 9 6 6 7 7 8 9 10 8 5 9 10 8 8 9 11 14 16 16 13 10 5 6 5 3 2 3 2 2 2 3 4 13 18 19 21 21 18 17 17
19 19 19 19 19 19 19 19 19 19 18 18 17 17 17 16 17 17 16 16 16 17 17 17 17 17 18 19 20 18 8 3 3 4 3 2 3 1 5 10 13 16 17 14 12 11 11 10 8 6 4 6 10 10 9 11 11 7 8 9 11 12 10 10 13 14 12 10 9 5 2 3 5 2 1 8 5 2 4 8 14 12 11 9 13 18 17 17
19 19 19 19 19 19 19 19 19 19 19 18 18 18 18 17 17 16 16 16 16 16 17 17 17 16 16 17 18 13 6 10 16 6 5 7 4 2 2 3 5 8 11 12 11 10 8 9 8 6 6 7 10 11 11 11 13 11 9 9 10 12 13 15 15 13 12 11 6 2 5 5 5 2 4 10 6 6 10 15 18 14 14 10 7 6 6 10
18 18 19 18 19 19 19 19 19 19 18 19 19 18 18 18 17 16 16 16 16 16 16 16 16 15 14 13 12 8 6 19 29 14 8 8 3 2 2 3 5 7 10 12 13 10 8 10 10 7 7 7 8 10 11 11 13 13 11 10 9 10 12 15 16 14 13 12 6 3 5 4 1 2 6 8 8 12 13 15 16 14 17 14 11 11 10 11
19 19 19 19 19 19 19 19 19 19 17 18 19 19 18 18 18 17 16 16 17 17 16 16 15 14 12 9 8 8 11 28 31 12 7 8 5 4 6 7 10 11 13 14 16 13 9 8 9 8 7 7 8 10 12 10 9 11 13 11 10 10 11 12 13 14 14 9 2 2 3 4 5 2 6 6 9 15 15 15 15 14 14 12 14 14 10 9
19 19 19 19 19 19 20 19 19 19 18 17 19 19 19 18 18 18 17 17 16 17 17 16 14 14 12 10 8 9 15 24 21 8 9 16 14 8 9 10 12 13 14 14 16 15 10 8 8 8 8 9 8 8 12 11 7 9 13 13 12 11 11 12 12 12 12 7 7 4 1 3 5 3 2 4 8 14 16 14 13 14 12 10 9 9 10 10
19 19 19 19 19 20 20 20 20 20 20 18 18 19 19 19 19 19 18 17 17 17 16 16 14 13 13 10 8 11 13 13 14 16 19 21 20 15 14 13 13 11 11 13 17 17 15 14 12 7 6 6 7 8 9 11 9 10 13 13 14 13 10 13 14 11 9 6 9 8 3 4 4 3 5 6 6 13 16 12 13 14 10 9 9 6 6 8
19 19 19 19 19 19 19 20 20 21 21 19 18 18 19 20 19 19 19 18 17 17 16 16 14 13 13 10 11 22 24 23 28 31 30 27 23 21 18 16 16 15 13 9 14 21 21 19 16 10 7 4 5 7 7 9 10 12 12 10 13 15 13 15 14 11 7 3 6 7 2 5 3 4 9 9 5 11 16 12 12 12 10 9 8 7 6 8
19 19 20 20 20 19 19 19 20 21 20 20 19 18 19 20 20 19 19 19 18 17 17 16 15 14 13 8 11 27 34 34 35 32 31 27 22 22 20 19 19 18 17 14 12 17 22 23 18 12 11 8 6 5 7 8 8 11 11 7 8 10 11 14 13 11 7 3 5 7 2 6 3 9 10 9 8 12 13 10 11 10 9 8 8 8 6 7
20 20 19 19 20 19 19 19 19 20 20 20 19 19 21 21 21 20 19 19 19 18 17 15 14 13 10 9 15 28 31 32 33 30 30 26 20 20 21 20 20 19 18 17 17 15 15 21 19 11 10 10 8 9 10 8 7 8 9 6 5 5 5 10 11 10 8 5 7 7 4 5 5 12 10 8 10 14 12 8 9 9 8 7 8 8 7 6
19 20 19 18 19 19 19 20 19 20 20 20 20 20 22 23 22 21 19 19 19 18 17 16 15 11 7 10 18 24 24 28 34 34 32 26 19 17 18 19 20 19 18 17 18 15 13 15 14 9 8 9 9 10 9 6 5 6 7 6 5 5 3 6 9 11 8 6 9 8 4 3 7 12 12 8 7 12 13 8 8 9 9 8 8 7 7 7
19 19 19 19 20 19 19 20 19 19 20 21 21 22 23 24 22 20 18 18 18 18 16 14 14 11 6 8 12 16 16 21 28 29 27 26 21 16 17 19 19 19 18 18 17 15 14 11 7 7 7 8 9 7 5 5 5 5 6 6 5 5 5 4 7 12 12 7 8 9 5 3 6 10 12 9 8 11 11 9 9 8 9 8 7 7 7 7
19 19 20 20 20 20 19 19 19 19 19 20 22 24 24 22 20 19 18 17 17 17 14 13 14 9 8 12 11 12 14 18 22 22 22 25 24 21 18 15 14 16 15 16 16 13 11 7 4 6 7 7 6 5 5 7 7 5 4 5 5 6 6 4 5 8 13 10 8 11 7 4 8 10 11 10 10 11 11 10 9 8 8 7 7 7 7 8
19 20 20 20 20 21 20 20 19 19 19 20 22 24 24 21 20 21 18 15 13 12 12 14 13 6 7 12 11 13 14 14 18 20 21 22 24 24 21 14 11 12 10 9 12 9 6 4 4 4 6 7 8 7 8 8 6 5 4 4 4 5 6 8 7 6 13 15 11 11 8 7 10 10 11 11 10 11 11 10 9 9 9 8 8 7 7 9
20 20 19 20 20 20 21 21 20 19 19 20 20 22 22 18 15 14 12 10 7 4 5 6 8 5 5 6 11 15 14 14 16 16 19 20 23 24 21 18 13 10 9 6 7 9 5 3 4 6 8 11 11 10 8 6 6 7 6 5 5 6 6 8 10 9 13 15 12 10 9 11 11 10 11 11 10 11 10 10 9 9 9 8 7 7 8 10
20 20 20 21 20 21 22 21 20 19 17 17 19 18 15 9 5 3 5 7 8 9 9 7 8 9 13 11 10 16 17 14 12 10 16 15 17 20 16 14 11 8 8 7 8 8 6 4 8 10 10 11 12 11 9 9 11 9 7 7 8 8 7 8 11 12 12 13 13 12 9 12 13 11 11 11 10 11 11 11 10 9 9 8 8 8 9 10
21 21 21 21 21 21 20 20 20 18 15 15 15 11 6 5 5 3 3 6 11 16 17 16 14 14 18 17 17 19 15 12 10 5 11 10 8 12 10 10 9 7 7 9 8 7 7 9 12 12 9 9 11 12 10 11 14 12 8 8 9 9 8 9 11 12 13 11 10 13 9 11 14 11 11 12 12 11 11 12 11 11 10 8 9 10 10 10
22 21 21 22 21 20 20 20 19 17 16 15 11 8 6 8 9 7 6 6 9 14 16 19 19 17 20 25 26 21 12 10 11 10 9 11 7 5 8 8 8 6 7 10 7 7 10 12 12 10 7 8 10 12 12 12 13 11 7 6 6 9 8 10 14 11 12 9 9 15 10 9 12 11 10 11 11 10 10 13 13 14 12 10 10 10 11 11
22 22 22 22 22 21 20 20 19 18 17 14 10 10 10 14 15 13 9 5 8 12 12 14 16 15 17 21 23 20 13 9 8 11 11 15 8 6 7 7 8 8 8 11 10 9 10 9 9 9 9 12 11 12 14 11 10 9 7 6 4 8 9 8 12 11 11 10 10 14 7 7 9 8 7 7 8 9 9 12 12 12 12 11 11 10 12 13
22 22 22 22 22 20 19 20 18 15 13 11 10 11 12 14 13 9 4 3 8 9 12 15 12 12 16 18 16 12 9 9 9 11 12 15 9 8 8 8 9 8 9 14 14 11 8 5 9 11 12 15 13 12 14 10 8 9 10 8 6 8 10 10 10 8 10 10 10 13 6 4 8 8 7 5 7 8 9 11 11 10 11 12 12 10 10 12
21 22 22 22 20 18 19 17 12 11 10 8 8 9 10 11 9 5 0 2 6 5 9 13 9 11 20 20 16 11 8 9 10 12 9 12 10 8 7 7 7 9 11 15 15 11 7 8 13 15 13 14 13 11 14 12 7 8 11 11 11 12 8 11 12 5 8 7 7 13 7 1 5 9 10 7 8 8 8 11 12 11 12 11 11 10 8 9
21 21 22 22 19 18 16 8 6 11 11 6 6 9 8 9 8 5 2 2 4 4 6 9 7 10 17 15 11 8 8 9 12 16 13 10 11 8 6 5 5 9 11 11 10 6 6 10 14 15 13 13 13 10 13 14 7 7 9 10 14 16 12 12 13 6 6 6 6 9 8 2 4 6 10 10 11 11 10 12 13 12 10 8 8 10 9 8
22 22 22 22 18 16 10 6 9 11 6 4 7 8 7 8 7 2 1 2 3 4 4 6 6 10 14 13 11 8 5 5 9 16 15 12 10 7 6 6 6 8 8 6 7 5 8 14 15 15 14 12 12 11 13 14 9 7 9 10 13 14 14 15 10 5 5 5 5 6 9 6 4 5 8 12 13 11 11 13 13 13 11 8 8 9 9 9
23 23 23 21 18 13 10 11 13 8 4 6 8 9 8 6 3 2 0 3 2 3 2 2 5 10 10 10 14 12 5 2 4 10 14 15 11 5 6 9 7 9 10 7 5 7 10 14 16 16 13 10 11 12 12 13 11 9 10 12 11 12 14 13 7 4 6 6 5 7 8 7 4 5 7 11 12 11 12 13 13 14 13 11 8 8 9 9
24 24 23 22 19 14 10 11 12 8 8 9 10 10 7 3 3 2 1 3 2 3 2 2 4 7 6 8 14 13 7 4 4 6 11 14 13 9 6 8 8 8 12 12 6 7 9 11 13 15 12 9 10 12 14 13 11 10 12 12 11 11 11 8 5 4 6 7 7 9 9 6 3 6 8 9 10 10 11 11 12 14 13 12 10 10 10 10
25 25 23 23 19 12 7 11 14 10 8 8 8 7 3 1 2 1 3 2 2 3 3 3 3 3 4 6 11 11 10 10 8 5 8 9 11 13 8 6 8 7 9 12 10 7 9 10 11 12 11 10 9 12 15 14 10 10 11 11 10 9 5 2 3 3 3 4 7 9 11 7 4 6 8 9 12 13 13 12 12 13 14 12 11 11 12 11
27 27 26 23 17 11 8 7 7 4 5 5 5 4 1 0 0 1 3 1 1 3 4 3 4 7 8 5 4 10 12 12 9 7 7 6 8 11 7 5 5 4 5 7 9 10 11 12 10 8 12 12 10 10 14 14 10 9 10 8 7 5 2 2 2 1 2 5 5 8 9 8 5 6 9 10 13 17 17 16 17 16 15 12 10 11 12 12
30 29 28 24 16 12 10 7 2 1 5 2 3 2 1 0 1 3 3 0 2 3 2 3 5 7 9 10 6 7 11 10 10 10 9 7 7 8 8 6 5 5 4 5 8 9 9 11 11 9 12 14 10 8 10 11 10 9 9 6 5 2 2 3 3 1 4 4 6 10 8 6 4 8 15 12 10 16 16 17 20 19 15 12 11 11 10 11
32 30 26 21 12 11 12 9 6 5 4 1 1 1 0 2 2 3 2 1 1 1 0 3 6 7 8 8 7 6 9 10 10 11 11 11 8 7 10 11 8 6 4 5 7 7 6 9 13 11 10 13 11 7 8 8 9 12 9 5 5 5 4 5 3 2 2 4 5 8 4 4 3 8 18 17 13 17 18 18 20 19 18 16 13 12 11 12
33 27 20 14 9 11 12 9 10 9 5 3 0 1 1 4 4 3 2 2 2 2 3 5 7 8 8 6 6 8 7 8 10 12 11 10 7 6 9 12 13 8 3 4 5 5 5 6 12 11 8 13 15 10 9 8 7 11 9 5 4 4 5 4 2 4 3 2 1 3 3 4 4 6 17 20 16 17 19 18 18 18 18 16 13 13 13 13
29 19 14 11 10 11 12 12 13 11 7 4 0 2 3 4 3 1 2 2 1 2 5 7 8 8 7 7 9 11 8 6 11 12 9 9 7 7 8 10 14 12 5 4 4 5 6 4 11 12 8 15 16 10 9 8 5 8 6 5 5 4 5 4 3 5 6 3 1 0 1 3 3 4 13 18 15 17 18 17 17 16 16 15 14 14 14 12
24 16 12 10 11 11 10 11 13 12 8 2 3 3 4 4 3 1 1 2 2 3 6 7 7 6 5 5 7 10 10 7 9 9 7 9 9 10 10 9 12 13 8 5 3 5 6 3 11 13 8 14 16 11 10 8 5 6 5 5 6 5 5 5 1 0 5 4 3 1 1 1 2 2 6 15 17 17 18 18 18 17 16 16 15 14 13 12
19 14 11 11 12 11 11 11 12 12 7 1 4 5 4 4 5 4 3 4 3 2 4 5 3 4 4 4 4 7 9 7 7 6 5 8 8 10 12 10 11 14 12 9 4 3 5 2 10 16 12 12 11 9 11 6 3 5 5 5 5 5 4 4 2 1 4 3 4 2 5 3 5 1 2 10 17 16 16 18 18 17 16 15 14 14 14 14
16 11 9 10 9 7 11 12 10 9 4 2 6 8 6 5 7 6 3 5 4 1 2 2 2 2 2 3 3 6 8 6 5 6 5 7 5 9 12 10 12 16 16 13 7 2 4 1 5 14 14 8 3 2 8 7 4 4 6 5 5 5 3 2 4 3 4 3 3 2 6 4 5 6 4 7 15 16 16 17 18 19 16 14 14 14 15 14
13 6 4 4 5 3 8 9 5 2 2 4 5 6 6 6 8 6 1 2 4 3 3 3 2 2 3 3 3 6 8 7 6 6 5 5 4 10 14 10 10 16 17 14 7 3 3 2 1 8 9 5 2 3 5 5 6 6 6 6 5 5 3 3 4 4 4 4 3 2 4 3 4 9 12 13 16 18 18 17 18 19 17 14 14 14 14 14
8 3 1 2 3 4 6 6 2 1 3 4 4 4 5 6 7 5 3 4 4 3 3 3 2 2 3 5 4 5 7 8 8 6 4 6 5 9 16 13 9 12 15 13 7 1 1 3 1 3 4 3 2 3 5 5 4 5 5 5 5 4 4 3 2 3 5 5 4 3 2 4 4 7 16 18 19 20 20 18 16 16 16 15 15 16 15 14
5 2 1 2 3 4 4 3 1 3 3 3 4 5 7 6 6 7 6 7 6 5 5 5 4 4 4 5 5 5 6 6 8 5 3 7 7 5 13 15 10 10 10 10 7 1 1 2 2 3 2 3 5 6 6 7 6 5 3 3 5 5 5 3 1 2 4 3 5 4 2 5 4 3 14 19 19 19 21 20 16 15 17 16 15 16 16 15
3 3 2 5 6 5 4 0 3 3 3 4 4 6 7 6 5 5 6 7 7 6 6 6 6 6 6 5 6 7 6 5 6 6 2 7 8 5 11 16 14 11 7 5 6 4 4 2 3 5 4 5 8 8 10 12 10 7 6 3 4 4 4 5 3 4 3 2 4 5 2 5 5 3 12 15 16 18 19 21 18 16 17 16 15 15 14 14
2 3 2 7 8 6 3 2 3 2 4 4 5 7 8 6 5 5 5 6 5 5 5 5 6 6 6 7 6 8 8 5 6 8 4 7 8 8 12 17 16 12 7 4 5 2 4 2 4 5 3 5 8 9 10 12 9 7 7 4 4 5 5 5 4 4 4 3 4 4 2 5 6 3 10 11 12 15 15 18 19 16 14 15 16 15 14 14
3 4 2 5 9 7 2 3 3 3 4 4 5 8 7 6 7 7 6 6 4 2 3 5 6 7 6 6 6 8 9 4 6 10 6 6 8 11 15 20 18 11 6 5 4 1 1 1 3 6 2 4 7 6 6 8 6 4 4 5 5 5 7 6 2 2 2 5 6 6 3 6 5 4 13 13 14 14 13 15 17 17 15 14 14 13 13 14
4 3 1 3 7 5 2 2 2 3 5 5 6 8 6 5 6 8 8 8 6 3 2 4 5 7 7 7 7 9 11 6 4 9 7 5 8 11 17 22 19 13 8 8 9 4 3 2 3 6 4 5 7 5 4 5 3 2 2 5 6 5 8 9 3 3 2 5 4 6 4 4 3 7 16 16 17 15 12 12 13 14 16 15 14 13 13 13
3 2 2 0 4 3 3 3 2 2 4 4 5 5 3 3 4 6 8 8 7 6 4 5 6 8 8 7 6 6 9 11 7 6 5 4 6 8 14 20 19 16 11 11 13 5 1 1 2 4 4 5 5 3 3 3 1 2 5 5 5 7 6 6 3 4 4 3 2 4 7 4 3 8 16 16 17 16 14 14 12 12 15 15 14 14 13 13
2 2 3 3 2 2 3 3 3 3 2 2 2 3 3 4 5 4 6 5 6 6 5 6 7 7 5 3 4 5 7 11 8 4 5 5 6 7 13 17 17 16 9 10 8 3 2 2 4 2 3 5 6 4 6 7 5 4 6 5 6 8 5 5 4 6 5 5 2 3 11 11 4 8 14 15 17 16 15 16 15 14 15 15 15 16 16 15
2 1 1 2 3 3 5 5 3 3 4 3 2 3 4 6 5 3 4 3 5 4 3 4 6 7 5 5 5 5 4 4 3 4 6 5 5 7 12 12 11 13 11 8 4 4 4 2 5 4 5 3 3 5 9 12 9 5 6 7 7 10 7 6 5 6 5 8 5 5 10 12 8 10 15 14 15 16 15 15 15 15 16 16 17 18 17 17
2 2 2 2 3 5 8 11 11 9 5 5 4 3 4 6 5 0 2 1 1 3 4 2 3 5 7 9 8 4 0 1 1 5 6 3 2 6 8 3 3 9 12 8 5 2 4 2 3 1 3 1 2 5 4 12 13 7 7 8 7 8 9 8 5 2 5 9 11 9 7 6 5 9 12 11 12 13 13 13 14 16 16 17 18 18 17 17
2 3 3 3 5 7 8 9 10 9 3 3 3 2 4 6 6 3 1 0 1 2 3 2 6 7 6 8 8 4 4 3 6 8 5 1 1 3 3 2 3 5 7 7 4 1 4 1 3 3 2 1 2 3 4 3 8 9 9 10 8 7 7 7 6 3 4 5 9 11 8 4 3 6 8 10 12 14 14 14 14 14 15 16 16 16 16 16
8 9 7 5 5 6 6 7 7 6 3 1 2 2 2 5 6 5 4 2 2 2 2 4 6 4 3 7 7 3 3 8 11 10 8 4 3 2 1 3 6 4 3 5 3 2 4 0 3 4 1 2 1 1 5 5 3 2 6 9 9 6 4 3 5 5 5 5 7 9 8 6 6 8 10 10 13 15 15 15 14 12 14 16 16 16 16 16
12 11 7 3 4 5 6 8 8 5 3 3 5 4 1 4 6 5 3 2 3 3 1 2 4 2 1 4 6 4 7 12 12 10 9 4 2 1 2 3 6 5 3 3 4 2 4 3 2 2 2 1 3 4 5 6 6 3 3 6 6 5 3 1 2 4 6 7 7 5 5 6 10 13 13 12 13 15 15 14 13 13 14 15 16 17 17 17
Wind_Direction
342 340 339 336 334 333 332 332 332 332 332 331 330 331 329 327 324 320 316 315 316 316 317 312 302 299 298 305 311 316 323 321 315 306 281 257 249 243 252 267 266 260 266 263 258 263 273 266 240 226 228 229 219 227 240 240 223 203 195 219 233 226 231 225 236 252 251 267 271 302 298 182 270 226 126 99 114 136 71 64 78 66 91 123 125 139 146 146
344 341 338 336 334 333 332 330 329 328 328 328 327 328 327 326 325 324 318 311 313 314 316 317 312 306 299 300 310 319 323 316 303 289 275 262 254 241 238 252 256 252 255 254 243 239 245 248 227 216 216 223 212 214 228 230 222 218 195 209 228 220 237 241 244 255 256 272 275 345 10 28 355 333 39 44 130 150 109 78 80 85 94 107 121 138 143 143
344 342 339 335 333 332 329 327 328 327 325 325 324 323 324 324 323 324 322 313 309 311 313 313 314 313 306 302 311 322 321 313 299 277 274 271 248 226 226 240 249 253 251 244 240 236 243 258 251 219 207 226 219 209 213 217 225 223 210 218 224 217 240 251 250 259 261 268 273 87 51 28 7 334 4 16 337 201 132 124 112 112 119 122 131 139 138 140
342 340 338 335 334 331 327 324 324 325 323 323 320 319 321 320 322 320 321 318 310 309 309 308 311 312 312 307 309 322 320 308 289 240 260 292 239 211 221 235 239 244 246 242 242 244 257 276 292 268 217 217 217 214 214 211 217 217 219 226 219 209 228 245 253 265 265 267 275 143 145 119 44 328 326 340 324 334 122 155 148 139 140 136 136 139 140 142
339 338 337 335 334 332 330 327 324 321 319 321 319 316 316 316 320 318 318 319 314 312 306 304 308 309 314 310 309 321 322 303 241 129 138 8 25 207 222 234 237 239 240 239 242 248 260 271 284 281 240 214 211 216 219 212 213 231 233 229 229 227 227 235 243 252 257 268 284 250 192 158 116 306 291 20 30 336 307 177 143 138 143 144 145 145 145 146
336 335 334 333 332 331 330 328 326 323 319 320 318 315 314 313 314 314 316 317 317 315 306 303 305 311 313 309 312 313 304 277 318 66 70 0 10 277 227 234 235 234 230 225 231 239 250 252 244 253 248 217 211 214 221 211 209 228 243 230 224 234 247 252 247 252 266 287 292 276 251 124 98 307 9 60 54 356 354 96 106 99 99 112 140 146 150 153
334 333 332 331 330 329 328 326 324 322 320 320 317 314 312 311 311 309 312 314 316 314 310 304 301 311 313 314 316 294 246 260 270 296 317 286 286 260 225 220 218 209 208 211 220 227 233 240 233 230 240 229 213 215 223 219 216 221 237 236 221 222 237 254 261 267 278 285 285 17 5 35 69 326 67 75 71 56 50 90 104 102 94 70 52 78 118 124
333 332 330 330 329 327 326 324 322 318 316 318 316 314 311 310 309 307 308 310 312 311 311 308 301 309 312 316 315 286 252 249 255 278 295 263 250 256 265 227 229 206 193 206 217 221 227 235 235 230 239 236 216 216 223 223 224 223 228 233 226 223 226 239 253 261 267 270 272 13 8 6 14 328 69 86 100 86 72 86 97 106 110 105 85 57 38 55
332 332 330 329 327 326 325 322 320 316 313 316 315 313 311 309 308 305 305 306 308 308 308 308 303 308 308 300 292 283 263 244 248 281 333 306 306 288 286 257 242 218 198 210 220 224 227 229 234 233 248 253 230 220 223 226 222 218 225 230 226 230 235 241 246 247 254 252 228 7 355 318 291 344 62 88 107 98 89 90 98 105 107 113 114 106 101 91
331 331 329 327 326 324 323 321 319 316 313 312 311 312 310 308 307 304 302 302 305 305 305 306 305 309 302 277 264 266 265 252 252 286 336 332 330 309 295 278 255 225 204 207 217 227 229 231 242 243 255 266 255 228 220 228 230 216 221 228 228 229 238 250 255 247 248 224 156 146 218 272 264 237 101 115 117 103 95 95 106 108 107 113 111 115 120 119
327 327 326 325 323 321 321 319 317 316 313 309 307 308 307 306 306 303 302 299 300 301 302 303 305 306 290 268 250 247 260 273 282 295 305 317 322 309 295 288 283 262 232 209 211 224 231 239 249 255 250 251 265 262 239 232 239 237 228 225 226 229 234 244 254 252 249 221 162 147 170 239 245 204 146 146 143 112 105 106 109 106 111 115 107 105 95 100
323 323 323 322 322 320 319 318 317 315 314 312 307 305 305 305 305 302 299 296 296 297 299 301 301 300 284 265 241 243 257 278 287 295 298 301 304 299 294 289 287 283 275 249 215 216 224 239 246 251 254 250 258 266 264 241 238 248 244 231 221 223 230 234 245 250 244 213 155 130 155 254 237 142 131 139 148 115 112 116 116 115 120 118 113 109 96 109
322 320 320 321 322 320 318 316 316 316 315 314 310 307 304 302 302 300 297 295 293 292 295 298 298 293 276 260 250 251 261 275 282 289 291 290 293 290 288 283 280 276 272 272 252 225 219 230 239 250 261 264 260 267 278 254 241 249 247 246 224 219 228 224 231 245 238 188 145 127 174 250 171 134 138 140 138 118 116 124 124 122 121 119 118 110 107 117
323 320 318 319 320 319 318 316 315 315 315 315 313 309 303 300 299 296 294 292 290 291 294 295 294 287 266 261 270 264 263 268 273 277 277 279 285 282 280 278 276 272 263 262 266 262 241 232 234 246 256 256 269 283 281 259 239 241 242 245 219 212 228 213 213 232 233 191 163 148 190 234 141 135 145 145 145 129 123 134 128 124 121 118 119 116 115 114
323 321 319 318 318 319 317 315 315 314 315 315 313 308 302 299 296 293 291 288 287 289 293 293 282 270 270 272 271 272 269 262 261 262 262 264 269 272 273 273 272 267 261 256 257 266 268 248 231 232 248 254 263 272 273 265 240 220 224 232 211 204 220 204 204 214 219 191 175 177 192 183 130 141 149 147 149 130 126 134 125 121 122 119 119 117 112 108
322 322 320 317 317 318 317 315 313 313 313 312 310 306 301 298 295 292 289 284 285 287 291 289 265 242 255 275 275 282 271 251 252 257 255 250 246 249 260 267 270 263 254 251 252 254 259 260 237 222 234 245 246 246 260 271 253 221 204 207 206 199 199 209 215 209 204 191 182 193 193 131 140 150 143 143 142 127 124 125 121 121 117 116 116 114 110 106
322 323 320 317 316 316 316 314 311 310 311 311 309 303 302 301 296 291 287 282 281 281 278 271 263 250 247 267 291 289 260 244 248 250 248 243 234 231 245 259 263 251 239 240 245 246 244 247 237 215 217 233 235 218 230 238 231 229 201 191 212 200 182 203 241 215 191 189 196 199 197 146 153 152 137 142 140 126 126 125 122 119 112 114 115 115 115 110
322 321 319 317 315 314 315 313 310 309 309 310 309 307 308 306 295 287 283 282 279 276 269 261 264 270 245 246 252 254 252 249 246 239 235 235 224 221 228 238 251 235 215 225 233 231 224 220 226 209 202 221 226 210 213 221 212 209 192 182 213 211 194 197 223 222 186 189 200 197 191 144 139 146 138 142 140 126 128 129 123 117 114 119 119 119 117 109
322 320 319 318 315 315 314 314 312 309 310 312 313 316 312 301 291 282 269 269 269 257 265 242 214 221 284 258 230 254 276 264 253 238 226 217 206 210 219 227 246 237 202 196 206 209 202 202 220 212 205 211 216 216 219 230 225 211 194 188 201 212 219 203 209 218 188 186 199 196 179 151 147 153 145 143 137 127 127 127 122 119 117 121 123 120 113 105
323 320 319 318 318 318 316 315 312 310 312 315 317 319 316 306 302 290 252 247 232 229 251 254 212 232 286 302 284 301 309 279 259 222 214 213 193 196 210 220 234 240 214 191 186 198 197 211 221 214 211 207 212 224 232 237 239 231 205 199 205 212 230 213 212 217 190 181 198 199 176 156 157 156 148 141 132 130 134 133 128 126 125 127 128 118 106 101
325 322 321 321 322 321 319 316 311 309 308 309 313 311 306 314 323 353 319 257 233 230 240 251 244 241 258 271 285 304 314 293 293 254 215 228 213 190 194 209 216 230 216 191 183 186 197 221 222 214 209 206 209 221 233 236 239 243 222 203 202 206 230 230 226 219 188 176 189 197 189 161 157 152 148 142 136 142 144 137 131 128 130 131 127 118 107 105
328 326 324 324 325 324 321 316 309 306 301 296 294 277 270 296 307 325 317 282 262 248 240 247 249 249 254 259 268 275 286 287 291 288 222 202 226 205 180 197 208 223 212 196 187 175 206 226 214 203 204 212 214 214 227 238 239 247 236 219 204 195 215 236 243 234 189 170 180 196 196 154 151 147 146 142 136 146 145 138 136 136 138 135 127 120 114 117
329 328 327 326 327 326 321 315 308 303 297 284 267 260 277 295 300 308 305 285 283 265 243 242 241 248 256 259 261 259 267 271 267 275 224 185 203 214 194 202 205 218 210 202 199 182 206 222 197 194 204 215 219 207 217 238 243 246 234 232 233 201 194 212 246 241 189 169 171 183 171 122 138 128 131 135 125 132 130 127 132 136 135 125 120 118 121 127
331 330 328 327 327 325 322 317 309 301 291 273 262 266 287 301 298 300 306 268 276 257 235 238 235 239 245 250 257 251 254 253 252 263 215 179 192 207 207 210 199 218 217 205 209 206 211 183 178 208 214 212 216 202 206 225 239 242 234 228 240 230 202 192 234 234 177 177 164 150 109 100 152 138 138 138 115 122 119 116 115 114 115 110 111 114 122 133
332 330 328 328 326 324 322 317 311 313 308 285 283 297 310 320 308 284 238 268 275 257 227 228 227 234 237 240 242 239 255 247 244 262 226 186 197 194 208 220 199 219 219 206 210 216 216 171 177 209 219 209 211 206 205 211 229 245 238 227 235 250 234 202 218 193 148 198 178 137 114 271 189 151 152 149 127 134 128 119 114 107 107 108 116 123 130 137
332 330 329 329 326 324 324 311 314 333 326 303 323 333 329 333 321 292 273 272 269 268 208 186 184 209 219 226 216 212 258 254 240 253 251 232 225 209 208 215 203 222 218 204 208 220 210 184 184 205 211 203 208 218 213 208 216 240 232 225 233 247 260 242 225 177 150 206 194 145 128 172 226 174 166 157 143 146 138 123 119 112 107 115 135 142 144 143
333 332 331 329 327 328 323 289 310 329 325 313 333 328 322 331 333 337 312 259 261 282 228 159 149 177 192 201 183 177 235 233 230 247 249 248 246 242 231 213 200 220 222 204 200 207 200 191 192 202 203 199 205 218 215 205 208 236 233 227 232 237 249 259 246 192 170 178 191 170 127 126 208 205 176 158 143 143 140 129 122 118 124 142 154 149 145 145
332 332 332 329 322 314 292 282 299 305 287 305 315 309 316 339 5 56 1 259 272 322 297 206 177 174 185 188 179 190 225 176 196 233 239 244 245 243 240 232 222 213 221 228 200 187 201 199 192 196 204 203 205 214 213 205 206 229 239 234 238 237 238 253 263 213 165 150 200 203 141 131 184 190 173 155 147 151 147 137 129 128 142 157 158 149 145 142
329 330 332 331 322 307 282 265 271 281 286 287 299 316 334 23 58 71 247 270 330 14 5 293 217 191 202 185 182 201 227 243 237 211 216 233 242 241 239 242 247 235 227 238 234 185 199 211 196 193 205 208 203 209 215 214 207 215 235 242 242 241 239 242 242 213 159 157 201 203 167 139 156 181 171 154 160 166 149 138 135 140 156 166 163 159 150 140
327 326 329 333 324 315 301 254 256 281 289 279 299 335 23 76 38 25 251 275 351 357 340 291 286 308 268 200 185 196 210 234 249 219 198 210 231 238 245 250 249 257 240 236 246 222 199 212 210 198 201 206 201 204 216 222 209 202 226 246 245 239 255 258 213 172 153 197 211 193 178 160 157 193 180 170 178 169 147 141 144 151 165 170 164 158 147 139
328 325 326 327 313 302 307 269 257 270 244 260 311 335 48 206 27 275 264 267 336 328 327 297 334 349 323 291 204 191 204 229 241 232 214 198 215 221 227 251 233 246 261 235 238 238 210 202 214 204 191 199 204 200 215 225 217 208 218 232 238 243 296 311 307 96 172 246 230 186 184 179 174 198 199 196 179 160 150 150 153 161 169 166 159 154 146 140
328 324 321 319 298 265 254 249 278 256 219 244 323 313 336 20 215 243 264 338 304 308 336 308 333 350 329 321 302 213 207 223 230 232 220 193 205 206 200 219 196 190 239 221 210 230 222 201 204 201 185 194 204 193 208 222 218 220 219 207 203 194 199 233 258 197 200 253 212 176 188 210 192 183 191 195 171 156 152 152 156 160 163 161 160 155 147 140
326 322 316 311 287 242 238 248 263 246 214 148 301 288 307 264 244 215 229 280 273 271 149 280 299 310 308 310 305 253 216 210 223 234 220 196 198 205 208 223 221 204 213 211 201 207 223 208 199 195 179 191 207 191 195 212 208 216 214 179 172 162 171 213 216 163 207 277 209 164 165 223 218 179 179 177 168 155 149 153 158 158 159 162 162 153 146 144
326 321 315 306 270 241 244 251 247 230 192 124 171 280 243 261 255 194 219 247 205 206 225 246 263 274 277 264 270 271 228 203 221 226 205 189 195 203 210 224 231 233 216 208 209 186 202 205 193 196 175 184 207 206 193 196 196 215 212 165 183 179 160 191 180 155 181 272 236 119 94 192 210 194 175 170 166 151 146 155 156 155 159 158 153 149 147 148
326 324 321 303 270 250 238 234 238 221 170 128 276 265 239 262 273 205 228 236 212 238 245 256 258 253 256 246 250 262 253 219 222 221 190 177 199 205 202 213 222 228 216 201 210 189 209 209 187 201 187 178 202 217 197 185 185 214 209 178 221 216 144 147 170 169 154 127 254 147 111 217 220 179 159 156 156 147 142 147 146 151 157 148 146 152 150 151
329 329 324 294 268 256 230 225 233 210 170 150 285 252 243 253 252 236 233 230 246 295 289 286 268 244 236 232 229 240 252 241 219 220 190 181 200 203 201 209 214 219 215 208 202 177 204 216 178 193 202 186 197 217 205 180 168 200 202 195 221 210 140 121 169 231 98 115 243 218 110 342 39 63 125 135 142 143 138 141 146 152 153 146 150 155 152 152
327 324 314 289 279 261 225 216 218 196 169 228 249 246 268 261 256 270 301 321 340 333 304 302 277 236 211 210 203 213 235 238 221 227 194 183 202 202 204 216 218 221 222 220 236 167 175 213 182 188 205 199 191 218 227 208 156 180 194 212 220 204 170 120 124 337 77 124 256 196 153 150 110 63 326 118 131 140 140 141 147 152 152 150 152 153 152 151
317 308 303 300 305 268 214 206 202 185 170 239 244 259 271 256 266 282 334 344 336 327 287 275 270 292 227 193 186 202 219 221 224 234 191 176 203 199 202 219 219 225 229 222 240 244 164 155 201 189 193 196 142 171 234 255 267 204 179 194 194 175 199 165 144 166 134 146 281 200 164 166 136 164 211 139 135 142 144 144 150 157 156 153 151 150 149 147
308 289 308 342 20 96 168 178 183 187 211 232 242 255 259 260 273 274 219 260 276 277 273 246 227 281 285 254 206 199 215 215 222 235 195 175 197 196 203 220 217 222 230 224 229 257 180 129 208 189 173 165 104 127 194 241 270 241 191 190 187 149 165 182 161 159 145 156 247 226 171 205 188 166 163 156 148 147 150 153 158 161 157 154 154 152 150 151
309 280 291 35 68 123 132 125 125 244 229 235 247 252 267 280 282 280 251 237 251 253 246 247 248 263 283 294 282 221 217 220 224 233 200 182 176 190 205 218 220 221 231 233 228 275 125 118 157 198 144 118 175 188 185 190 220 226 200 193 198 166 151 171 180 164 145 151 181 191 207 235 228 166 155 155 154 154 156 157 159 159 155 156 157 154 154 154
309 306 247 166 177 176 115 72 184 219 231 248 253 256 270 279 283 288 273 245 238 241 252 267 273 276 291 300 293 250 216 218 227 237 208 181 172 186 213 219 226 225 231 241 236 180 92 105 136 177 166 178 216 220 204 210 222 206 186 191 185 161 135 138 245 205 148 149 163 154 209 263 280 164 154 156 158 159 155 151 153 156 155 158 158 155 155 153
281 300 216 184 194 172 122 238 225 208 235 248 257 264 272 283 284 279 268 250 235 227 241 256 255 265 271 259 270 271 244 217 219 234 212 175 179 194 213 217 225 232 235 234 219 167 116 106 131 162 191 201 213 221 211 222 235 205 196 215 174 157 133 131 174 207 177 177 172 143 170 263 283 182 157 156 156 154 150 149 151 155 157 157 155 153 149 148
279 301 218 187 189 154 118 251 236 206 233 258 283 276 271 276 266 262 275 266 239 208 216 241 242 242 246 241 258 274 257 218 210 236 218 166 186 199 205 214 221 231 237 210 204 158 85 87 139 157 192 193 203 225 219 223 235 204 198 207 180 190 184 157 165 183 183 191 173 136 165 260 287 170 142 135 137 141 145 149 148 150 156 155 153 151 145 144
297 285 234 188 181 154 143 256 250 246 257 273 280 273 272 266 253 254 266 264 245 199 215 239 233 222 231 246 257 272 270 236 209 240 232 161 187 198 201 212 215 224 233 178 172 164 116 158 136 133 129 162 187 222 229 226 237 216 196 195 198 201 187 201 240 115 178 206 160 128 174 247 288 129 134 130 132 138 145 149 145 145 151 152 150 148 143 142
307 264 213 171 175 167 201 233 223 261 279 291 284 281 278 265 250 235 237 255 259 237 238 258 257 248 249 254 255 265 274 271 223 233 234 183 183 192 200 207 208 225 236 161 146 161 177 184 132 126 140 166 185 212 216 215 234 264 222 191 207 223 193 203 225 98 203 232 153 127 176 247 336 112 140 143 138 139 142 142 140 140 144 146 146 143 141 143
332 292 311 245 182 197 237 229 201 244 281 292 291 291 266 258 275 225 211 239 246 225 232 255 268 271 261 256 268 276 278 274 252 234 244 211 179 183 200 201 201 222 224 146 139 152 139 205 173 140 163 178 186 211 187 180 177 228 240 214 213 236 202 168 145 150 188 203 168 157 150 144 34 115 141 146 140 141 144 141 138 137 139 141 142 141 141 144
329 307 323 328 261 247 251 233 164 168 247 277 301 309 272 265 283 224 188 214 227 216 230 235 241 262 267 270 283 290 286 273 254 255 287 242 183 174 198 201 202 213 197 128 138 156 70 262 236 211 227 198 184 193 175 184 208 207 219 224 231 244 216 131 158 201 168 130 201 200 140 143 168 143 140 144 144 146 147 144 144 142 142 141 140 141 143 145
338 295 294 305 282 295 298 290 279 244 230 208 229 297 281 278 283 210 181 220 224 215 227 229 234 253 293 326 296 266 278 287 284 305 289 242 188 176 194 204 201 190 159 124 174 178 113 235 232 224 263 239 187 221 187 183 204 215 209 211 223 245 231 157 178 214 142 124 178 198 153 155 169 153 147 148 148 146 143 142 143 143 143 143 143 146 148 151
321 290 286 281 271 284 286 285 293 295 259 202 216 268 280 297 311 163 163 225 234 229 222 239 296 316 339 329 298 271 193 79 296 281 266 249 211 183 182 202 198 170 145 142 205 180 100 253 258 227 281 0 61 296 228 180 190 199 217 223 224 241 227 177 168 199 117 131 158 166 159 157 153 152 152 142 132 131 130 134 139 142 145 146 147 150 152 156
353 304 305 303 284 282 283 284 296 311 305 191 210 253 274 299 321 346 325 322 19 302 240 293 343 354 352 316 300 335 22 307 271 262 250 223 164 170 144 103 167 167 144 151 200 35 89 237 305 26 349 262 156 311 334 161 182 186 206 228 232 241 233 186 162 137 84 121 152 146 138 139 128 122 119 113 118 123 129 138 143 145 147 148 150 153 155 158
329 297 292 303 299 301 310 309 310 326 345 222 252 259 250 285 308 326 314 246 213 301 326 348 343 350 1 319 308 346 331 279 273 273 266 226 168 152 125 142 149 156 169 151 132 72 111 172 340 53 56 269 154 31 350 8 36 152 207 229 226 218 230 203 168 155 135 120 122 126 136 155 145 119 108 116 128 131 137 144 144 145 149 150 154 158 159 161
322 302 295 293 290 305 317 314 320 333 318 303 322 332 310 280 277 284 314 295 235 262 304 328 312 323 29 287 283 288 280 272 274 280 273 244 188 158 143 148 142 143 162 127 91 85 122 100 14 85 124 279 76 54 0 16 38 12 273 256 232 198 184 162 123 150 155 136 126 147 188 178 150 133 127 134 140 142 148 151 147 150 156 158 161 162 162 164
Height
819 818 817 816 815 814 813 812 812 811 810 809 808 807 806 805 804 803 802 801 800 799 798 796 795 794 792 791 789 787 785 781 776 775 772 763 761 764 764 764 765 765 766 767 768 769 768 768 767 767 769 770 770 769 767 764 762 768 777 786 790 786 780 772 768 763 759 755 747 742 737 740 743 735 727 726 731 734 739 742 741 739 738 742 747 752 756 760
818 817 816 815 814 813 812 811 811 810 809 808 807 806 805 804 803 802 801 800 799 798 797 795 794 793 791 790 788 787 785 780 776 772 762 756 759 762 761 763 764 765 766 766 767 767 768 767 765 766 768 769 768 766 767 763 761 768 774 781 782 777 770 761 758 754 751 751 745 741 738 739 743 737 730 736 743 738 746 754 749 750 751 748 752 758 761 761
817 816 815 814 813 812 811 810 809 809 808 807 806 805 804 803 802 801 800 799 798 797 796 795 793 792 791 789 788 787 784 779 774 764 754 752 755 757 759 761 762 763 765 765 766 766 766 765 764 765 767 769 767 765 768 763 761 764 768 777 773 766 763 755 752 749 746 743 743 743 737 738 739 734 733 741 746 743 751 757 755 759 759 757 757 759 762 764
817 816 815 813 813 812 811 809 809 808 807 806 805 804 804 802 801 800 799 798 797 796 795 794 793 791 790 789 788 787 784 780 769 756 752 752 752 754 757 759 760 762 763 763 765 765 765 764 764 765 766 768 765 763 765 762 761 761 762 769 763 758 760 754 748 746 742 738 741 743 740 741 736 732 736 741 748 751 751 749 749 755 756 757 760 760 762 764
817 816 814 813 812 811 810 809 808 807 806 805 804 803 802 801 800 799 798 797 796 795 794 793 792 791 790 788 788 787 787 779 761 751 753 753 753 754 756 757 759 760 761 763 764 764 765 764 765 766 765 766 765 764 763 757 756 759 757 757 754 754 757 751 744 742 738 737 741 742 743 741 735 736 738 741 754 758 751 743 744 749 751 752 755 758 760 762
817 815 814 813 811 810 809 808 807 806 805 804 803 802 801 800 799 798 797 796 795 794 793 792 791 790 789 788 787 788 790 775 754 752 755 753 755 754 755 755 756 758 759 762 762 763 764 762 764 767 765 762 763 762 759 753 752 760 757 750 750 750 752 747 740 739 737 739 744 742 739 734 736 742 740 745 756 755 745 739 744 752 756 759 757 756 758 761
816 814 813 812 811 810 808 807 806 805 804 803 802 801 800 799 798 797 796 795 795 793 792 790 790 790 788 788 786 785 788 772 752 753 755 754 756 754 755 754 755 757 758 760 761 762 762 762 763 763 764 761 759 758 755 751 749 757 757 749 747 746 747 743 738 738 737 740 741 737 737 737 743 744 741 752 756 750 745 741 744 750 756 767 771 769 767 767
815 814 812 811 810 809 807 806 805 804 803 802 801 799 798 797 797 796 795 795 793 792 791 789 789 789 788 788 786 784 781 765 750 753 755 755 755 753 755 754 754 755 756 759 758 759 760 761 760 759 763 759 754 754 752 752 751 751 753 748 744 743 743 739 737 738 737 737 735 734 739 741 741 740 746 758 755 749 748 747 751 753 756 765 773 779 781 780
814 813 811 810 809 808 807 805 804 803 801 800 800 798 797 796 795 794 794 793 792 792 790 789 789 787 789 787 787 785 768 753 752 756 756 756 755 754 754 753 754 754 755 757 756 758 758 758 758 756 759 755 750 750 748 753 753 746 746 745 742 742 739 737 737 736 736 735 733 736 741 740 736 741 756 760 753 750 749 751 757 759 763 767 769 773 779 783
813 812 811 809 808 807 806 805 803 802 800 799 798 797 796 794 794 793 792 792 791 791 789 789 788 787 788 785 788 782 756 747 755 756 755 755 754 753 753 752 752 752 753 754 754 755 755 755 754 751 754 752 748 747 745 748 747 740 741 741 739 740 737 735 736 734 734 733 732 738 743 741 735 743 763 762 751 750 752 757 759 761 768 770 772 771 773 777
812 811 810 809 808 806 805 804 802 801 799 798 796 796 794 793 792 791 791 791 789 789 788 787 787 787 786 783 787 774 748 747 754 752 754 753 752 753 752 751 750 751 751 751 751 752 753 753 750 751 753 750 747 746 742 739 738 736 737 740 738 738 737 734 735 734 734 733 730 734 741 743 739 746 759 759 753 750 754 761 762 764 770 771 773 774 775 777
811 810 809 808 807 805 804 803 801 800 798 796 795 794 793 792 790 790 789 789 788 788 787 786 786 785 785 782 777 761 747 749 751 751 753 751 752 751 750 750 749 749 749 749 749 749 751 750 749 753 751 746 748 750 742 733 734 735 735 742 741 738 739 735 733 733 733 734 727 731 748 751 747 754 758 756 755 753 756 762 763 766 770 772 774 776 777 778
810 809 808 807 805 804 803 801 800 798 796 795 794 792 792 790 789 788 787 787 787 786 785 785 785 784 785 777 764 756 753 751 750 751 750 749 751 750 749 749 747 748 748 747 747 746 749 748 748 751 747 748 749 745 736 730 734 736 735 741 743 745 744 733 731 732 733 733 724 735 762 762 753 758 758 755 756 756 760 764 765 767 770 772 775 777 779 779
809 808 807 805 804 803 801 800 799 797 795 794 792 791 790 788 788 786 785 785 784 785 784 784 784 784 782 770 758 756 754 751 751 750 748 748 750 749 748 746 746 746 745 746 745 745 746 746 747 748 745 746 745 740 737 735 735 737 739 740 742 751 748 731 729 733 736 732 723 738 765 763 756 760 757 755 755 755 763 767 766 768 770 773 776 778 780 779
808 807 805 804 802 801 800 798 797 796 795 793 791 790 788 787 786 784 784 783 783 783 782 782 782 782 779 766 756 752 749 749 748 746 745 747 749 748 746 745 744 743 744 744 743 743 744 744 746 748 746 743 743 746 747 743 737 736 746 749 744 749 748 733 727 730 736 733 724 740 762 763 760 759 755 755 756 755 762 768 769 770 771 774 776 777 779 780
807 806 804 802 801 800 799 797 796 795 793 792 790 788 786 785 783 782 782 780 781 782 781 781 778 780 779 764 752 748 746 745 742 741 743 744 747 746 745 745 743 742 742 741 741 742 741 742 743 743 745 745 746 751 754 754 747 736 743 753 747 748 748 739 730 725 729 733 730 739 756 765 763 756 754 755 757 758 763 768 770 772 772 774 777 778 779 781
806 804 802 801 800 798 797 796 795 793 792 791 789 787 784 782 780 780 780 780 780 779 780 779 775 778 772 756 751 747 740 739 738 738 738 739 743 744 745 745 742 741 740 740 741 740 740 741 742 742 743 745 745 749 760 765 758 744 741 747 745 743 746 744 737 725 724 732 736 738 746 757 758 753 754 755 755 759 764 769 771 773 775 776 778 779 780 782
805 803 801 800 798 797 795 794 792 791 790 789 787 785 782 779 778 778 778 779 778 779 780 776 776 780 762 747 749 742 734 736 736 735 736 736 739 741 743 742 740 739 739 741 740 739 741 740 741 745 745 746 744 747 758 759 753 748 745 747 745 741 742 743 739 728 724 731 737 741 746 753 755 752 754 755 754 759 763 767 770 772 776 778 779 781 782 784
803 802 800 798 796 795 793 792 791 790 788 787 786 784 780 776 775 776 777 778 778 779 779 772 773 771 749 738 742 737 733 735 732 732 732 732 735 738 739 740 738 737 740 743 742 738 740 742 745 748 745 742 739 740 747 744 739 740 739 742 745 744 741 737 733 724 722 732 738 740 746 753 757 754 754 755 754 758 763 765 769 773 776 779 781 782 783 785
802 800 799 797 795 793 792 791 789 788 787 786 785 783 779 775 775 776 776 777 775 772 770 765 764 760 744 736 737 736 735 732 730 729 728 729 731 734 736 737 737 737 738 741 742 736 738 747 748 742 738 735 735 736 737 735 732 731 733 737 739 742 740 731 726 719 717 731 738 736 742 751 754 752 751 753 755 759 762 765 769 772 776 779 781 783 785 787
800 799 797 795 794 792 791 789 787 787 786 785 785 784 781 778 778 779 777 773 769 765 763 759 759 757 747 739 737 739 738 733 730 728 727 727 727 732 734 733 738 740 736 735 737 735 739 746 740 732 732 731 732 733 733 733 731 731 733 734 736 738 735 726 720 715 712 727 737 733 739 750 750 750 750 749 755 760 761 764 769 771 775 777 780 784 786 788
799 797 795 794 792 791 789 788 786 785 784 784 784 783 780 778 779 778 777 773 764 761 761 756 755 752 745 741 739 740 741 737 733 728 726 727 727 732 731 731 738 739 734 732 735 740 742 737 729 728 729 728 730 730 732 733 731 733 733 734 737 732 731 727 717 712 710 723 736 732 738 751 749 748 749 749 753 758 758 760 765 768 772 776 780 784 786 789
798 796 794 792 790 789 787 786 784 783 782 782 781 780 778 777 777 776 777 775 764 756 755 752 751 749 743 741 738 738 740 738 735 728 723 726 727 729 730 732 736 735 732 731 733 740 741 732 726 726 726 728 731 729 731 734 733 733 733 737 738 728 729 734 721 712 710 716 727 730 741 754 753 753 753 751 752 756 758 759 761 764 769 775 780 783 786 789
796 794 793 791 789 787 785 784 782 781 780 779 779 778 776 776 775 775 776 775 764 751 746 745 744 743 739 736 736 738 738 734 732 726 720 723 725 727 729 729 733 734 730 726 727 732 732 726 723 724 724 727 730 729 730 737 738 732 728 732 734 724 722 726 718 712 712 714 715 730 760 768 758 759 760 754 755 759 761 762 764 767 770 776 781 784 787 788
795 794 791 789 788 785 784 782 780 779 779 778 778 776 775 775 774 774 775 775 765 746 738 739 738 735 732 732 734 734 734 731 727 722 718 720 722 725 727 724 728 732 727 722 724 728 726 720 718 724 724 722 727 728 727 733 739 735 724 721 724 721 718 715 712 714 726 731 717 727 773 785 762 759 762 757 760 764 764 765 769 773 775 779 783 786 788 789
794 792 790 788 787 784 783 780 778 778 778 777 777 775 775 775 773 774 775 778 770 746 733 734 732 728 726 728 729 731 738 732 721 718 717 719 718 719 725 723 721 725 721 718 722 723 720 714 714 720 721 721 725 728 723 725 737 737 721 713 715 717 719 715 711 719 735 738 718 714 756 785 773 763 761 757 763 766 764 768 773 776 781 782 783 785 788 790
792 790 789 787 785 784 783 780 778 777 777 777 775 775 775 774 774 774 776 783 771 741 729 729 727 723 720 720 723 732 740 729 719 718 715 719 718 715 723 723 719 720 713 714 724 721 713 712 714 715 718 721 725 726 718 716 731 731 713 708 714 714 718 718 713 720 725 723 719 711 732 773 781 766 758 756 763 769 767 770 776 779 782 782 781 784 787 789
791 789 787 785 784 784 782 781 779 777 777 776 774 775 774 774 775 774 780 785 761 733 730 728 722 719 716 716 720 726 727 721 722 720 712 717 719 716 723 721 718 718 709 714 726 717 707 711 713 712 718 721 719 718 712 711 722 720 707 706 710 710 713 713 714 719 715 720 734 723 722 760 778 763 755 757 763 770 770 772 778 780 780 780 781 784 785 787
789 787 786 784 782 781 781 780 779 777 776 775 775 774 773 774 774 775 785 779 749 731 735 730 723 720 716 717 719 721 722 720 721 717 710 716 717 716 721 718 717 718 710 711 718 711 704 704 704 708 715 715 711 709 707 709 714 709 704 705 706 707 706 708 715 718 718 728 741 729 719 747 773 766 757 762 766 767 770 774 778 778 777 778 780 782 783 785
787 786 784 782 780 779 779 778 777 776 775 775 775 773 773 774 774 780 785 772 750 740 736 731 728 724 718 718 720 723 724 721 717 714 713 715 715 715 715 712 715 719 713 709 710 706 698 696 697 700 704 705 704 704 702 704 705 703 705 708 708 707 705 709 712 713 729 741 736 724 714 731 766 773 756 754 754 752 761 773 778 776 774 776 779 779 780 783
785 783 782 781 779 778 778 776 774 774 774 775 775 773 774 774 777 783 776 760 752 747 739 735 732 727 725 725 724 723 722 721 718 717 718 717 717 717 716 716 717 721 722 716 710 704 697 697 697 692 692 696 699 702 700 698 699 702 707 711 717 717 714 720 720 720 742 750 730 716 710 721 755 769 752 740 736 737 749 763 771 772 772 775 777 775 777 780
782 779 778 777 776 777 776 774 773 773 774 774 775 774 775 777 780 777 763 752 752 751 747 746 738 733 734 733 729 724 720 721 719 718 718 719 719 717 718 721 718 724 731 722 713 708 702 696 692 689 687 689 698 705 704 701 701 704 707 713 727 733 734 741 740 737 745 741 721 709 714 725 737 742 739 735 734 735 742 751 759 764 768 772 772 772 775 778
779 775 773 772 772 773 772 772 772 773 773 774 775 775 777 780 773 762 754 752 753 753 752 749 743 740 740 738 732 724 718 718 718 717 714 714 719 717 716 715 711 717 723 718 713 713 710 698 687 690 689 685 693 704 710 709 704 704 706 716 730 738 748 756 749 746 746 734 714 704 716 731 728 721 723 726 728 731 737 745 751 756 762 767 768 771 775 779
775 772 769 768 769 769 769 771 771 771 771 773 776 776 779 778 761 750 754 752 750 754 752 747 744 742 741 739 731 723 719 717 715 714 711 712 720 720 716 714 709 709 711 712 711 711 717 711 693 689 690 685 687 692 698 700 701 699 695 706 720 723 736 750 745 744 747 735 718 713 724 734 726 716 712 713 719 725 734 743 748 754 758 763 768 772 777 781
772 769 768 766 767 767 767 769 769 770 772 773 777 778 777 771 756 751 754 749 748 751 746 742 742 741 740 735 727 720 719 716 712 709 708 712 719 717 714 712 708 706 709 712 707 703 712 708 687 681 681 680 686 685 682 691 702 698 689 702 715 708 712 727 731 730 732 734 728 723 729 726 714 709 704 708 718 723 733 744 750 758 760 763 770 773 777 781
769 767 766 765 765 765 766 767 768 769 771 774 779 778 770 761 753 750 748 744 748 749 744 741 738 738 739 732 723 718 714 711 710 709 707 709 712 710 707 705 700 701 706 707 700 698 708 702 680 678 681 677 682 682 676 687 700 698 697 707 705 693 697 716 730 724 723 739 735 723 730 726 717 719 712 711 722 727 735 746 751 757 760 763 769 772 776 780
769 767 766 764 763 763 764 765 766 767 769 775 779 772 760 751 745 743 741 742 747 748 749 747 737 732 733 726 719 716 712 710 710 710 707 706 707 703 701 699 694 695 696 697 693 688 697 700 681 676 685 679 674 679 677 677 685 696 705 702 693 692 695 706 729 734 735 748 738 722 733 735 733 741 730 721 731 736 740 748 753 757 760 763 767 769 774 777
769 767 765 763 761 761 761 763 764 765 768 774 775 765 756 749 742 739 743 747 750 749 751 750 739 731 727 720 715 713 711 712 711 708 704 705 705 698 697 696 691 689 685 689 694 683 684 700 690 675 683 682 674 684 689 680 678 687 693 689 693 709 713 710 725 738 745 754 743 729 733 735 737 742 737 735 740 742 746 750 753 756 759 762 766 768 773 776
769 768 766 763 761 759 761 763 763 766 770 772 771 762 752 745 740 738 743 748 749 748 748 745 739 735 728 720 714 710 709 710 709 705 701 704 704 695 692 691 687 684 679 682 691 684 679 698 701 682 677 681 682 690 699 695 685 682 683 684 689 702 709 710 715 725 738 750 747 739 738 735 729 725 727 736 737 739 747 750 751 753 756 760 763 767 771 774
769 769 766 762 762 761 761 763 765 769 771 767 763 758 749 743 740 737 740 744 745 744 743 738 736 736 729 721 715 709 706 706 703 699 697 698 701 697 689 685 684 682 678 678 683 682 680 692 701 690 679 685 691 690 693 698 695 691 693 694 693 694 697 703 708 710 722 739 745 744 744 733 717 709 716 727 728 731 739 744 748 751 754 758 760 763 768 771
770 770 766 761 762 761 762 767 769 769 769 763 758 754 749 744 741 739 739 740 741 739 737 735 736 735 731 727 720 708 702 701 698 694 693 693 699 698 687 680 681 680 679 682 683 683 686 690 697 698 693 694 691 680 679 688 690 691 695 695 694 695 700 715 723 711 709 723 731 737 744 733 712 706 710 716 720 724 730 737 745 749 752 756 758 760 765 769
771 770 764 761 761 761 764 769 768 766 765 759 754 750 746 744 744 742 737 735 736 736 735 734 734 732 730 727 722 711 702 697 695 693 690 688 692 691 681 676 677 676 680 685 680 675 681 689 696 701 698 693 685 676 677 683 683 684 688 688 687 692 701 718 730 719 710 715 715 722 737 730 710 706 709 711 715 719 725 732 740 746 750 753 757 760 764 768
771 768 762 761 761 761 766 767 763 763 761 754 750 747 743 743 744 739 734 732 732 732 733 732 730 728 726 721 717 712 701 692 692 690 685 685 685 680 675 673 674 675 680 683 677 673 680 691 699 702 697 689 683 678 677 679 683 686 687 686 686 690 696 703 709 709 713 718 716 725 742 731 709 705 710 713 717 721 726 730 735 744 750 753 757 761 764 769
771 766 761 761 761 761 765 765 760 759 755 752 752 748 742 740 738 737 734 730 727 729 731 727 723 723 721 716 712 707 699 693 692 686 681 682 680 674 671 670 672 676 678 679 677 678 687 695 699 706 710 706 702 698 692 688 689 690 687 685 687 688 691 696 700 705 714 716 713 727 744 731 709 707 712 715 720 726 730 732 735 742 749 753 758 762 765 770
771 765 760 760 761 762 762 761 760 759 754 754 752 747 743 739 733 732 733 729 725 726 729 724 718 716 715 712 709 703 696 692 690 684 679 678 675 670 668 669 673 676 674 671 672 678 689 694 695 706 719 723 720 713 704 697 694 691 685 684 687 688 691 698 705 713 720 714 708 723 736 726 711 713 717 716 721 729 733 736 738 741 747 752 757 763 767 771
772 768 763 761 760 761 760 758 760 760 757 756 751 744 744 741 731 726 728 728 723 723 726 724 718 714 710 707 706 702 696 690 685 682 679 677 672 667 665 666 670 673 671 668 670 677 688 691 690 699 707 710 709 701 691 690 695 697 691 686 688 689 690 697 706 715 715 710 711 719 723 723 720 721 722 720 722 728 734 739 743 746 749 752 757 763 768 772
773 772 770 766 762 759 756 753 757 760 758 756 751 743 742 741 733 725 724 724 720 720 723 720 716 713 707 706 707 703 697 692 684 681 680 676 669 665 664 664 668 671 670 669 672 679 691 695 691 694 696 692 690 687 683 686 694 696 693 691 689 688 691 700 708 708 704 710 722 721 714 720 726 724 723 723 722 727 733 738 744 747 750 753 758 763 768 772
774 773 771 769 766 761 756 751 752 756 756 755 752 746 743 738 730 724 723 720 717 717 718 715 712 708 703 707 710 704 698 695 688 684 683 677 670 667 667 666 667 669 669 673 677 679 690 698 691 691 695 688 684 685 684 686 691 692 691 692 690 689 693 701 704 699 697 708 723 721 714 716 721 720 721 720 720 725 732 738 742 745 749 753 758 763 767 772
775 773 768 768 767 764 759 752 748 748 749 750 750 746 742 734 723 718 718 719 718 715 714 713 709 705 704 708 708 703 699 698 695 689 683 677 672 670 672 675 674 668 667 676 679 675 686 697 690 688 695 691 689 692 687 685 689 690 690 690 690 690 691 696 699 694 694 703 710 713 715 717 717 716 715 716 719 725 732 739 742 746 750 753 757 762 766 770
780 778 772 768 766 760 755 750 745 743 743 746 747 743 740 734 723 716 714 717 719 714 710 711 710 708 711 710 705 701 699 698 696 688 679 678 676 671 674 680 678 672 671 677 679 676 686 698 692 690 699 697 690 691 690 688 691 692 692 690 690 691 691 693 695 693 696 705 707 709 715 719 718 715 716 718 722 728 736 741 744 747 750 753 758 762 765 769
783 780 775 772 766 758 753 748 742 741 742 745 743 738 738 734 724 720 715 711 714 713 709 710 711 711 714 711 705 703 701 698 692 680 671 672 673 670 671 672 672 676 677 677 680 681 687 695 693 695 706 703 690 690 694 692 692 695 696 693 691 693 693 691 691 691 695 704 711 713 716 719 719 719 722 725 726 731 738 742 745 749 751 754 758 762 765 768
783 779 775 775 769 759 754 749 743 741 742 742 736 731 733 731 725 724 720 711 709 710 709 709 710 712 715 714 708 703 698 692 685 675 667 664 663 663 665 665 666 673 677 677 682 685 687 694 697 699 707 705 693 692 696 697 702 707 704 699 695 692 690 689 688 689 690 695 707 714 711 711 714 718 724 729 731 734 738 739 742 747 750 753 755 758 762 765